START_TIME,STEP,MOV.,M15,t_acc.,M20,t_acc.
1979-07-27 09:00:43.170 ,0,0,0.,24.0,0.,24.0
1979-07-27 09:01:07.170 ,0,1,0.,24.0,0.,24.0
1979-07-27 09:01:31.170 ,0,0,0.,24.0,0.,24.0
1979-07-27 09:01:55.170 ,1,1,0.,24.0,0.,24.0
1979-07-27 09:02:19.170 ,1,0,0.,24.0,0.,24.0
1979-07-27 09:02:43.170 ,2,1,0.,24.0,0.,24.0
1979-07-27 09:03:07.170 ,2,0,0.,24.0,0.,24.0
1979-07-27 09:03:31.170 ,3,1,0.,24.0,0.,24.0
1979-07-27 09:03:55.170 ,3,0,0.,24.0,0.,24.0
1979-07-27 09:04:19.170 ,4,1,0.,24.0,0.,24.0
1979-07-27 09:04:43.170 ,4,0,0.,24.0,0.,24.0
1979-07-27 09:05:07.170 ,5,1,0.,24.0,0.,24.0
1979-07-27 09:05:31.170 ,5,0,0.,24.0,0.,24.0
1979-07-27 09:05:55.170 ,6,1,0.,24.0,0.,24.0
1979-07-27 09:06:19.170 ,6,0,0.,24.0,0.,24.0
1979-07-27 09:06:43.170 ,7,0,0.,24.0,0.,24.0
1979-07-27 09:07:07.170 ,7,0,0.,24.0,0.,24.0
1979-07-27 09:07:31.170 ,3,1,0.,24.0,0.,24.0
1979-07-27 09:07:55.170 ,0,1,0.,24.0,0.,24.0
1979-07-27 09:08:19.170 ,4,1,0.,24.0,0.,24.0
1979-07-27 09:08:43.170 ,7,1,0.,24.0,0.,24.0
1979-07-27 09:09:07.170 ,3,1,0.,24.0,0.,24.0
1979-07-27 09:09:31.170 ,0,1,0.,24.0,0.,24.0
1979-07-27 09:09:55.170 ,4,1,0.,24.0,0.,24.0
1979-07-27 09:10:19.170 ,7,1,0.,24.0,0.,24.0
1979-07-27 09:10:43.170 ,3,1,0.,24.0,0.,24.0
1979-07-27 09:11:07.170 ,0,1,0.,24.0,0.,24.0
1979-07-27 09:11:31.170 ,4,1,0.,24.0,0.,24.0
1979-07-27 09:11:55.170 ,7,1,0.,24.0,0.,24.0
1979-07-27 09:12:19.170 ,3,1,0.,24.0,0.,24.0
1979-07-27 09:12:43.170 ,0,1,0.,24.0,0.,24.0
1979-07-27 09:13:07.170 ,4,1,0.,24.0,0.,24.0
1979-07-27 09:13:31.170 ,7,1,0.,24.0,0.,24.0
1979-07-27 09:13:55.170 ,3,1,0.,24.0,0.,24.0
1979-07-27 09:14:19.170 ,0,1,0.,24.0,0.,24.0
1979-07-27 09:14:43.170 ,4,1,0.,24.0,0.,24.0
1979-07-27 09:15:07.170 ,7,1,0.,24.0,0.,24.0
1979-07-27 09:15:31.170 ,3,1,0.,24.0,0.,24.0
1979-07-27 09:15:55.170 ,0,1,0.,24.0,0.,24.0
1979-07-27 09:16:19.170 ,4,1,0.,24.0,0.,24.0
1979-07-27 09:16:43.170 ,7,1,0.,24.0,0.,24.0
1979-07-27 09:17:07.170 ,3,1,0.,24.0,0.,24.0
1979-07-27 09:17:31.170 ,0,1,0.,24.0,0.,24.0
1979-07-27 09:17:55.170 ,0,0,0.,24.0,0.,24.0
1979-07-27 09:18:19.170 ,0,0,0.,24.0,0.,24.0
1979-07-27 09:18:43.170 ,5,1,0.,24.0,0.,24.0
1979-07-27 09:19:07.170 ,5,0,0.,24.0,0.,24.0
1979-07-27 09:19:31.170 ,4,1,0.,24.0,0.,24.0
1979-07-27 09:19:55.170 ,4,0,0.,24.0,0.,24.0
1979-07-27 09:20:19.170 ,3,1,0.,24.0,0.,24.0
1979-07-27 09:20:43.170 ,3,0,0.,24.0,0.,24.0
1979-07-27 09:21:07.170 ,2,1,0.,24.0,0.,24.0
1979-07-27 09:21:31.170 ,2,0,0.,24.0,0.,24.0
1979-07-27 09:21:55.170 ,1,1,0.,24.0,0.,24.0
1979-07-27 09:22:19.170 ,1,0,0.,24.0,0.,24.0
1979-07-27 09:22:43.170 ,0,1,0.,24.0,0.,24.0
1979-07-27 09:23:07.170 ,0,0,0.,24.0,0.,24.0
1979-07-27 09:23:31.170 ,0,1,0.,24.0,0.,24.0
1979-07-27 09:23:55.170 ,0,0,0.,24.0,0.,24.0
1979-07-27 09:24:19.170 ,1,1,0.,24.0,0.,24.0
1979-07-27 09:24:43.170 ,1,0,0.,24.0,0.,24.0
1979-07-27 09:25:07.170 ,2,1,0.,24.0,0.,24.0
1979-07-27 09:25:31.170 ,2,0,0.,24.0,0.,24.0
1979-07-27 09:25:55.170 ,3,1,0.,24.0,0.,24.0
1979-07-27 09:26:19.170 ,3,0,0.,24.0,0.,24.0
1979-07-27 09:26:43.170 ,4,1,0.,24.0,0.,24.0
1979-07-27 09:27:07.170 ,4,0,0.,24.0,0.,24.0
1979-07-27 09:27:31.170 ,5,1,0.,24.0,0.,24.0
1979-07-27 09:27:55.170 ,5,0,0.,24.0,0.,24.0
1979-07-27 09:28:19.170 ,6,1,0.,24.0,0.,24.0
1979-07-27 09:28:43.170 ,6,0,0.,24.0,0.,24.0
1979-07-27 09:29:07.170 ,7,1,0.,24.0,0.,24.0
1979-07-27 09:29:31.170 ,7,0,0.,24.0,0.,24.0
1979-07-27 09:29:55.170 ,7,1,0.,24.0,0.,24.0
1979-07-27 09:30:19.170 ,7,0,0.,24.0,0.,24.0
1979-07-27 09:30:43.170 ,6,1,0.,24.0,0.,24.0
1979-07-27 09:31:07.170 ,6,0,0.,24.0,0.,24.0
1979-07-27 09:31:31.170 ,5,1,0.,24.0,0.,24.0
1979-07-27 09:31:55.170 ,5,0,0.,24.0,0.,24.0
1979-07-27 09:32:19.170 ,4,1,1.,24.0,0.,24.0
1979-07-27 09:32:43.170 ,4,0,0.,24.0,0.,24.0
1979-07-27 09:33:07.170 ,3,1,0.,24.0,0.,24.0
1979-07-27 09:33:31.170 ,3,0,0.,24.0,0.,24.0
1979-07-27 09:33:55.170 ,2,1,0.,24.0,0.,24.0
1979-07-27 09:34:19.170 ,2,0,0.,24.0,0.,24.0
1979-07-27 09:34:43.170 ,1,1,0.,24.0,0.,24.0
1979-07-27 09:35:07.170 ,1,0,0.,24.0,0.,24.0
1979-07-27 09:35:31.170 ,0,1,0.,24.0,0.,24.0
1979-07-27 09:35:55.170 ,0,0,0.,24.0,0.,24.0
1979-07-27 09:36:19.170 ,0,1,0.,24.0,0.,24.0
1979-07-27 09:36:43.170 ,0,0,0.,24.0,0.,24.0
1979-07-27 09:37:07.170 ,1,1,0.,24.0,0.,24.0
1979-07-27 09:37:31.170 ,1,0,0.,24.0,0.,24.0
1979-07-27 09:37:55.170 ,2,1,0.,24.0,0.,24.0
1979-07-27 09:38:19.170 ,2,0,0.,24.0,0.,24.0
1979-07-27 09:38:43.170 ,3,1,0.,24.0,0.,24.0
1979-07-27 09:39:07.170 ,3,0,0.,24.0,0.,24.0
1979-07-27 09:39:31.170 ,4,1,0.,24.0,0.,24.0
1979-07-27 09:39:55.170 ,4,0,0.,24.0,0.,24.0
1979-07-27 09:40:19.170 ,5,1,0.,24.0,0.,24.0
1979-07-27 09:40:43.170 ,5,0,0.,24.0,0.,24.0
1979-07-27 09:41:07.170 ,6,1,0.,24.0,0.,24.0
1979-07-27 09:41:31.170 ,6,0,0.,24.0,0.,24.0
1979-07-27 09:41:55.170 ,7,1,0.,24.0,0.,24.0
1979-07-27 09:42:19.170 ,7,0,0.,24.0,0.,24.0
1979-07-27 09:42:43.170 ,7,1,0.,24.0,0.,24.0
1979-07-27 09:43:07.170 ,7,0,0.,24.0,0.,24.0
1979-07-27 09:43:31.170 ,6,1,0.,24.0,0.,24.0
1979-07-27 09:43:55.170 ,6,0,0.,24.0,0.,24.0
1979-07-27 09:44:19.170 ,5,1,0.,24.0,0.,24.0
1979-07-27 09:44:43.170 ,5,0,0.,24.0,0.,24.0
1979-07-27 09:45:07.170 ,4,1,0.,24.0,0.,24.0
1979-07-27 09:45:31.170 ,4,0,0.,24.0,0.,24.0
1979-07-27 09:45:55.170 ,3,1,0.,24.0,0.,24.0
1979-07-27 09:46:19.170 ,3,0,0.,24.0,0.,24.0
1979-07-27 09:46:43.170 ,2,1,0.,24.0,0.,24.0
1979-07-27 09:47:07.170 ,2,0,0.,24.0,0.,24.0
1979-07-27 09:47:31.170 ,1,1,0.,24.0,0.,24.0
1979-07-27 09:47:55.170 ,1,0,0.,24.0,0.,24.0
1979-07-27 09:48:19.170 ,0,1,0.,24.0,0.,24.0
1979-07-27 09:48:43.170 ,0,0,0.,24.0,0.,24.0
1979-07-27 09:49:07.170 ,0,1,0.,24.0,0.,24.0
1979-07-27 09:49:31.170 ,0,0,0.,24.0,0.,24.0
1979-07-27 09:49:55.170 ,1,1,0.,24.0,0.,24.0
1979-07-27 09:50:19.170 ,1,0,0.,24.0,0.,24.0
1979-07-27 09:50:43.170 ,2,1,0.,24.0,0.,24.0
1979-07-27 09:51:07.170 ,2,0,0.,24.0,0.,24.0
1979-07-27 09:51:31.170 ,3,1,0.,24.0,0.,24.0
1979-07-27 09:51:55.170 ,3,0,0.,24.0,0.,24.0
1979-07-27 09:52:19.170 ,4,1,0.,24.0,0.,24.0
1979-07-27 09:52:43.170 ,4,0,0.,24.0,0.,24.0
1979-07-27 09:53:07.160 ,5,1,0.,24.0,0.,24.0
1979-07-27 09:53:31.160 ,5,0,0.,24.0,0.,24.0
1979-07-27 09:53:55.160 ,6,1,0.,24.0,0.,24.0
1979-07-27 09:54:19.160 ,6,0,0.,24.0,0.,24.0
1979-07-27 09:54:43.160 ,7,0,0.,24.0,0.,24.0
1979-07-27 09:55:07.160 ,7,0,0.,24.0,0.,24.0
1979-07-27 09:55:31.160 ,3,1,0.,24.0,0.,24.0
1979-07-27 09:55:55.160 ,0,1,0.,24.0,0.,24.0
1979-07-27 09:56:19.160 ,4,1,0.,24.0,0.,24.0
1979-07-27 09:56:43.160 ,7,1,0.,24.0,0.,24.0
1979-07-27 09:57:07.160 ,3,1,0.,24.0,0.,24.0
1979-07-27 09:57:31.160 ,0,1,0.,24.0,0.,24.0
1979-07-27 09:57:55.160 ,4,1,0.,24.0,0.,24.0
1979-07-27 09:58:19.160 ,7,1,0.,24.0,0.,24.0
1979-07-27 09:58:43.160 ,3,1,0.,24.0,0.,24.0
1979-07-27 09:59:07.160 ,0,1,0.,24.0,0.,24.0
1979-07-27 09:59:31.160 ,4,1,0.,24.0,0.,24.0
1979-07-27 09:59:55.160 ,7,1,0.,24.0,0.,24.0
1979-07-27 10:00:19.160 ,3,1,0.,24.0,0.,24.0
1979-07-27 10:00:43.170 ,0,1,0.,24.0,0.,24.0
1979-07-27 10:01:07.170 ,4,1,0.,24.0,0.,24.0
1979-07-27 10:01:31.170 ,7,1,0.,24.0,0.,24.0
1979-07-27 10:01:55.170 ,3,1,0.,24.0,0.,24.0
1979-07-27 10:02:19.170 ,0,1,0.,24.0,0.,24.0
1979-07-27 10:02:43.170 ,4,1,0.,24.0,0.,24.0
1979-07-27 10:03:07.170 ,7,1,0.,24.0,0.,24.0
1979-07-27 10:03:31.170 ,3,1,0.,24.0,0.,24.0
1979-07-27 10:03:55.170 ,0,1,0.,24.0,0.,24.0
1979-07-27 10:04:19.170 ,4,1,0.,24.0,0.,24.0
1979-07-27 10:04:43.170 ,7,1,0.,24.0,0.,24.0
1979-07-27 10:05:07.170 ,3,1,0.,24.0,0.,24.0
1979-07-27 10:05:31.170 ,0,1,0.,24.0,0.,24.0
1979-07-27 10:05:55.170 ,0,0,0.,24.0,0.,24.0
1979-07-27 10:06:19.170 ,0,0,0.,24.0,0.,24.0
1979-07-27 10:06:43.170 ,5,1,0.,24.0,0.,24.0
1979-07-27 10:07:07.170 ,5,0,0.,24.0,0.,24.0
1979-07-27 10:07:31.170 ,4,1,0.,24.0,0.,24.0
1979-07-27 10:07:55.170 ,4,0,0.,24.0,0.,24.0
1979-07-27 10:08:19.170 ,3,1,0.,24.0,0.,24.0
1979-07-27 10:08:43.170 ,3,0,0.,24.0,0.,24.0
1979-07-27 10:09:07.170 ,2,1,0.,24.0,0.,24.0
1979-07-27 10:09:31.170 ,2,0,0.,24.0,0.,24.0
1979-07-27 10:09:55.170 ,1,1,0.,24.0,0.,24.0
1979-07-27 10:10:19.170 ,1,0,0.,24.0,0.,24.0
1979-07-27 10:10:43.170 ,0,1,0.,24.0,0.,24.0
1979-07-27 10:11:07.170 ,0,0,0.,24.0,0.,24.0
1979-07-27 10:11:31.170 ,0,1,0.,24.0,0.,24.0
1979-07-27 10:11:55.170 ,0,0,0.,24.0,0.,24.0
1979-07-27 10:12:19.160 ,1,1,0.,24.0,0.,24.0
1979-07-27 10:12:43.160 ,1,0,0.,24.0,0.,24.0
1979-07-27 10:13:07.160 ,2,1,0.,24.0,0.,24.0
1979-07-27 10:13:31.160 ,2,0,0.,24.0,0.,24.0
1979-07-27 10:13:55.160 ,3,1,0.,24.0,0.,24.0
1979-07-27 10:14:19.160 ,3,0,0.,24.0,0.,24.0
1979-07-27 10:14:43.160 ,4,1,0.,24.0,0.,24.0
1979-07-27 10:15:07.160 ,4,0,0.,24.0,0.,24.0
1979-07-27 10:15:31.160 ,5,1,0.,24.0,0.,24.0
1979-07-27 10:15:55.160 ,5,0,0.,24.0,0.,24.0
1979-07-27 10:16:19.160 ,6,1,0.,24.0,0.,24.0
1979-07-27 10:16:43.160 ,6,0,0.,24.0,0.,24.0
1979-07-27 10:17:07.160 ,7,1,0.,24.0,0.,24.0
1979-07-27 10:17:31.160 ,7,0,0.,24.0,0.,24.0
1979-07-27 10:17:55.160 ,7,1,0.,24.0,0.,24.0
1979-07-27 10:18:19.160 ,7,0,0.,24.0,0.,24.0
1979-07-27 10:18:43.160 ,6,1,0.,24.0,0.,24.0
1979-07-27 10:19:07.160 ,6,0,0.,24.0,0.,24.0
1979-07-27 10:19:31.160 ,5,1,0.,24.0,0.,24.0
1979-07-27 10:19:55.160 ,5,0,0.,24.0,0.,24.0
1979-07-27 10:20:19.160 ,4,1,0.,24.0,0.,24.0
1979-07-27 10:20:43.160 ,4,0,0.,24.0,0.,24.0
1979-07-27 10:21:07.160 ,3,1,0.,24.0,0.,24.0
1979-07-27 10:21:31.160 ,3,0,0.,24.0,0.,24.0
1979-07-27 10:21:55.160 ,2,1,0.,24.0,0.,24.0
1979-07-27 10:22:19.160 ,2,0,0.,24.0,0.,24.0
1979-07-27 10:22:43.160 ,1,1,0.,24.0,0.,24.0
1979-07-27 10:23:07.160 ,1,0,0.,24.0,0.,24.0
1979-07-27 10:23:31.160 ,0,1,0.,24.0,0.,24.0
1979-07-27 10:23:55.160 ,0,0,0.,24.0,0.,24.0
1979-07-27 10:24:19.160 ,0,1,0.,24.0,0.,24.0
1979-07-27 10:24:43.160 ,0,0,0.,24.0,0.,24.0
1979-07-27 10:25:07.160 ,1,1,0.,24.0,0.,24.0
1979-07-27 10:25:31.160 ,1,0,0.,24.0,0.,24.0
1979-07-27 10:25:55.160 ,2,1,0.,24.0,0.,24.0
1979-07-27 10:26:19.160 ,2,0,0.,24.0,0.,24.0
1979-07-27 10:26:43.160 ,3,1,0.,24.0,0.,24.0
1979-07-27 10:27:07.160 ,3,0,0.,24.0,0.,24.0
1979-07-27 10:27:31.160 ,4,1,0.,24.0,0.,24.0
1979-07-27 10:27:55.160 ,4,0,0.,24.0,0.,24.0
1979-07-27 10:28:19.160 ,5,1,0.,24.0,0.,24.0
1979-07-27 10:28:43.160 ,5,0,0.,24.0,0.,24.0
1979-07-27 10:29:07.160 ,6,1,0.,24.0,0.,24.0
1979-07-27 10:29:31.160 ,6,0,0.,24.0,0.,24.0
1979-07-27 10:29:55.160 ,7,1,0.,24.0,0.,24.0
1979-07-27 10:30:19.160 ,7,0,0.,24.0,0.,24.0
1979-07-27 10:30:43.160 ,7,1,0.,24.0,0.,24.0
1979-07-27 10:31:07.160 ,7,0,0.,24.0,0.,24.0
1979-07-27 10:31:31.160 ,6,1,0.,24.0,0.,24.0
1979-07-27 10:31:55.160 ,6,0,0.,24.0,0.,24.0
1979-07-27 10:32:19.160 ,5,1,0.,24.0,0.,24.0
1979-07-27 10:32:43.160 ,5,0,0.,24.0,0.,24.0
1979-07-27 10:33:07.160 ,4,1,0.,24.0,0.,24.0
1979-07-27 10:33:31.160 ,4,0,0.,24.0,0.,24.0
1979-07-27 10:33:55.160 ,3,1,0.,24.0,0.,24.0
1979-07-27 10:34:19.160 ,3,0,0.,24.0,0.,24.0
1979-07-27 10:34:43.160 ,2,1,0.,24.0,0.,24.0
1979-07-27 10:35:07.160 ,2,0,0.,24.0,0.,24.0
1979-07-27 10:35:31.160 ,1,1,0.,24.0,0.,24.0
1979-07-27 10:35:55.160 ,1,0,0.,24.0,0.,24.0
1979-07-27 10:36:19.160 ,0,1,0.,24.0,0.,24.0
1979-07-27 10:36:43.160 ,0,0,0.,24.0,0.,24.0
1979-07-27 10:37:07.160 ,0,1,0.,24.0,0.,24.0
1979-07-27 10:37:31.160 ,0,0,0.,24.0,0.,24.0
1979-07-27 10:37:55.160 ,1,1,0.,24.0,0.,24.0
1979-07-27 10:38:19.160 ,1,0,0.,24.0,0.,24.0
1979-07-27 10:38:43.160 ,2,1,0.,24.0,0.,24.0
1979-07-27 10:39:07.160 ,2,0,0.,24.0,0.,24.0
1979-07-27 10:39:31.160 ,3,1,0.,24.0,0.,24.0
1979-07-27 10:39:55.160 ,3,0,0.,24.0,0.,24.0
1979-07-27 10:40:19.160 ,4,1,0.,24.0,0.,24.0
1979-07-27 10:40:43.160 ,4,0,0.,24.0,0.,24.0
1979-07-27 10:41:07.160 ,5,1,0.,24.0,0.,24.0
1979-07-27 10:41:31.160 ,5,0,0.,24.0,0.,24.0
1979-07-27 10:41:55.160 ,6,1,0.,24.0,0.,24.0
1979-07-27 10:42:19.160 ,6,0,0.,24.0,0.,24.0
1979-07-27 10:42:43.160 ,7,0,0.,24.0,0.,24.0
1979-07-27 10:43:07.160 ,7,0,0.,24.0,0.,24.0
1979-07-27 10:43:31.160 ,3,1,0.,24.0,0.,24.0
1979-07-27 10:43:55.160 ,0,1,0.,24.0,0.,24.0
1979-07-27 10:44:19.160 ,4,1,0.,24.0,0.,24.0
1979-07-27 10:44:43.160 ,7,1,0.,24.0,0.,24.0
1979-07-27 10:45:07.160 ,3,1,0.,24.0,0.,24.0
1979-07-27 10:45:31.160 ,0,1,0.,24.0,0.,24.0
1979-07-27 10:45:55.160 ,4,1,0.,24.0,0.,24.0
1979-07-27 10:46:19.160 ,7,1,0.,24.0,0.,24.0
1979-07-27 10:46:43.160 ,3,1,0.,24.0,0.,24.0
1979-07-27 10:47:07.160 ,0,1,0.,24.0,0.,24.0
1979-07-27 10:47:31.160 ,4,1,0.,24.0,0.,24.0
1979-07-27 10:47:55.160 ,7,1,0.,24.0,0.,24.0
1979-07-27 10:48:19.160 ,3,1,0.,24.0,0.,24.0
1979-07-27 10:48:43.160 ,0,1,0.,24.0,0.,24.0
1979-07-27 10:49:07.160 ,4,1,0.,24.0,0.,24.0
1979-07-27 10:49:31.160 ,7,1,0.,24.0,0.,24.0
1979-07-27 10:49:55.160 ,3,1,0.,24.0,0.,24.0
1979-07-27 10:50:19.160 ,0,1,0.,24.0,0.,24.0
1979-07-27 10:50:43.160 ,4,1,0.,24.0,0.,24.0
1979-07-27 10:51:07.160 ,7,1,0.,24.0,0.,24.0
1979-07-27 10:51:31.160 ,3,1,0.,24.0,0.,24.0
1979-07-27 10:51:55.160 ,0,1,0.,24.0,0.,24.0
1979-07-27 10:52:19.160 ,4,1,0.,24.0,0.,24.0
1979-07-27 10:52:43.160 ,7,1,0.,24.0,0.,24.0
1979-07-27 10:53:07.160 ,3,1,0.,24.0,0.,24.0
1979-07-27 10:53:31.160 ,0,1,0.,24.0,0.,24.0
1979-07-27 10:53:55.160 ,0,0,0.,24.0,0.,24.0
1979-07-27 10:54:19.160 ,0,0,0.,24.0,0.,24.0
1979-07-27 10:54:43.160 ,5,1,0.,24.0,0.,24.0
1979-07-27 10:55:07.160 ,5,0,0.,24.0,0.,24.0
1979-07-27 10:55:31.160 ,4,1,0.,24.0,0.,24.0
1979-07-27 10:55:55.160 ,4,0,0.,24.0,0.,24.0
1979-07-27 10:56:19.160 ,3,1,0.,24.0,0.,24.0
1979-07-27 10:56:43.160 ,3,0,0.,24.0,0.,24.0
1979-07-27 10:57:07.160 ,2,1,0.,24.0,0.,24.0
1979-07-27 10:57:31.160 ,2,0,0.,24.0,0.,24.0
1979-07-27 10:57:55.160 ,1,1,0.,24.0,0.,24.0
1979-07-27 10:58:19.160 ,1,0,0.,24.0,0.,24.0
1979-07-27 10:58:43.160 ,0,1,0.,24.0,0.,24.0
1979-07-27 10:59:07.160 ,0,0,0.,24.0,0.,24.0
1979-07-27 10:59:31.160 ,0,1,0.,24.0,0.,24.0
1979-07-27 10:59:55.160 ,0,0,0.,24.0,0.,24.0
1979-07-27 11:00:19.160 ,1,1,0.,24.0,0.,24.0
1979-07-27 11:00:43.160 ,1,0,0.,24.0,0.,24.0
1979-07-27 11:01:07.160 ,2,1,0.,24.0,0.,24.0
1979-07-27 11:01:31.160 ,2,0,0.,24.0,0.,24.0
1979-07-27 11:01:55.160 ,3,1,0.,24.0,0.,24.0
1979-07-27 11:02:19.160 ,3,0,0.,24.0,0.,24.0
1979-07-27 11:02:43.160 ,4,1,0.,24.0,0.,24.0
1979-07-27 11:03:07.160 ,0,0,0.,24.0,0.,24.0
1979-07-27 11:03:34.160 ,0,0,0.,24.0,0.,24.0
1979-07-27 11:03:55.160 ,0,0,0.,24.0,0.,24.0
1979-07-27 11:04:19.160 ,6,1,0.,24.0,0.,24.0
1979-07-27 11:04:43.160 ,6,0,0.,24.0,0.,24.0
1979-07-27 11:05:07.160 ,7,1,0.,24.0,0.,24.0
1979-07-27 11:05:31.160 ,7,0,0.,24.0,0.,24.0
1979-07-27 11:05:55.160 ,7,1,0.,24.0,0.,24.0
1979-07-27 11:06:19.160 ,7,0,0.,24.0,0.,24.0
1979-07-27 11:06:43.160 ,6,1,0.,24.0,0.,24.0
1979-07-27 11:07:07.160 ,6,0,0.,24.0,0.,24.0
1979-07-27 11:07:31.160 ,5,1,0.,24.0,0.,24.0
1979-07-27 11:07:55.160 ,5,0,0.,24.0,0.,24.0
1979-07-27 11:08:19.160 ,4,1,0.,24.0,0.,24.0
1979-07-27 11:08:43.160 ,4,0,0.,24.0,0.,24.0
1979-07-27 11:09:07.160 ,3,1,0.,24.0,0.,24.0
1979-07-27 11:09:31.160 ,3,0,0.,24.0,0.,24.0
1979-07-27 11:09:55.160 ,2,1,0.,24.0,0.,24.0
1979-07-27 11:10:19.160 ,2,0,0.,24.0,0.,24.0
1979-07-27 11:10:43.160 ,1,1,0.,24.0,0.,24.0
1979-07-27 11:11:07.160 ,1,0,0.,24.0,0.,24.0
1979-07-27 11:11:31.160 ,0,1,0.,24.0,0.,24.0
1979-07-27 11:11:55.160 ,0,0,0.,24.0,0.,24.0
1979-07-27 11:12:19.160 ,0,1,0.,24.0,0.,24.0
1979-07-27 11:12:43.160 ,0,0,0.,24.0,0.,24.0
1979-07-27 11:13:07.160 ,1,1,0.,24.0,0.,24.0
1979-07-27 11:13:31.160 ,1,0,0.,24.0,0.,24.0
1979-07-27 11:13:55.160 ,2,1,0.,24.0,0.,24.0
1979-07-27 11:14:19.160 ,2,0,0.,24.0,0.,24.0
1979-07-27 11:14:43.160 ,3,1,0.,24.0,0.,24.0
1979-07-27 11:15:07.160 ,3,0,0.,24.0,0.,24.0
1979-07-27 11:15:31.160 ,4,1,0.,24.0,0.,24.0
1979-07-27 11:15:55.160 ,4,0,0.,24.0,0.,24.0
1979-07-27 11:16:19.160 ,5,1,0.,24.0,0.,24.0
1979-07-27 11:16:43.160 ,5,0,0.,24.0,0.,24.0
1979-07-27 11:17:07.160 ,6,1,0.,24.0,0.,24.0
1979-07-27 11:17:31.160 ,6,0,0.,24.0,0.,24.0
1979-07-27 11:17:55.160 ,7,1,0.,24.0,0.,24.0
1979-07-27 11:18:19.160 ,7,0,0.,24.0,0.,24.0
1979-07-27 11:18:43.160 ,7,1,0.,24.0,0.,24.0
1979-07-27 11:19:07.160 ,7,0,0.,24.0,0.,24.0
1979-07-27 11:19:31.160 ,6,1,0.,24.0,0.,24.0
1979-07-27 11:19:55.160 ,6,0,0.,24.0,0.,24.0
1979-07-27 11:20:19.160 ,5,1,0.,24.0,0.,24.0
1979-07-27 11:20:43.160 ,5,0,0.,24.0,0.,24.0
1979-07-27 11:21:07.160 ,4,1,0.,24.0,0.,24.0
1979-07-27 11:21:31.160 ,4,0,0.,24.0,0.,24.0
1979-07-27 11:21:55.160 ,3,1,0.,24.0,0.,24.0
1979-07-27 11:22:19.160 ,3,0,0.,24.0,0.,24.0
1979-07-27 11:22:43.160 ,2,1,0.,24.0,0.,24.0
1979-07-27 11:23:07.160 ,2,0,0.,24.0,0.,24.0
1979-07-27 11:23:31.160 ,1,1,0.,24.0,0.,24.0
1979-07-27 11:23:55.160 ,1,0,0.,24.0,0.,24.0
1979-07-27 11:24:19.160 ,0,1,0.,24.0,0.,24.0
1979-07-27 11:24:43.160 ,0,0,0.,24.0,0.,24.0
1979-07-27 11:25:07.160 ,0,1,0.,24.0,0.,24.0
1979-07-27 11:25:31.160 ,0,0,0.,24.0,0.,24.0
1979-07-27 11:25:55.160 ,1,1,0.,24.0,0.,24.0
1979-07-27 11:26:19.160 ,1,0,0.,24.0,0.,24.0
1979-07-27 11:26:43.160 ,2,1,0.,24.0,0.,24.0
1979-07-27 11:27:07.160 ,2,0,0.,24.0,0.,24.0
1979-07-27 11:27:31.160 ,3,1,0.,24.0,0.,24.0
1979-07-27 11:27:55.160 ,3,0,0.,24.0,0.,24.0
1979-07-27 11:28:19.160 ,4,1,0.,24.0,0.,24.0
1979-07-27 11:28:43.160 ,4,0,0.,24.0,0.,24.0
1979-07-27 11:29:07.160 ,5,1,0.,24.0,0.,24.0
1979-07-27 11:29:31.160 ,5,0,0.,24.0,0.,24.0
1979-07-27 11:29:55.160 ,6,1,0.,24.0,0.,24.0
1979-07-27 11:30:19.160 ,6,0,0.,24.0,0.,24.0
1979-07-27 11:30:43.160 ,7,0,0.,24.0,0.,24.0
1979-07-27 11:31:07.160 ,7,0,0.,24.0,0.,24.0
1979-07-27 11:31:31.160 ,3,1,0.,24.0,0.,24.0
1979-07-27 11:31:55.160 ,0,1,0.,24.0,0.,24.0
1979-07-27 11:32:19.160 ,4,1,0.,24.0,0.,24.0
1979-07-27 11:32:43.160 ,7,1,0.,24.0,0.,24.0
1979-07-27 11:33:07.160 ,3,1,0.,24.0,0.,24.0
1979-07-27 11:33:31.160 ,0,1,0.,24.0,0.,24.0
1979-07-27 11:33:55.160 ,4,1,0.,24.0,0.,24.0
1979-07-27 11:34:19.160 ,7,1,0.,24.0,0.,24.0
1979-07-27 11:34:43.160 ,3,1,0.,24.0,0.,24.0
1979-07-27 11:35:07.160 ,0,1,0.,24.0,0.,24.0
1979-07-27 11:35:31.160 ,4,1,0.,24.0,0.,24.0
1979-07-27 11:35:55.160 ,7,1,0.,24.0,0.,24.0
1979-07-27 11:36:19.160 ,3,1,0.,24.0,0.,24.0
1979-07-27 11:36:43.160 ,0,1,0.,24.0,0.,24.0
1979-07-27 11:37:07.160 ,4,1,0.,24.0,0.,24.0
1979-07-27 11:37:31.160 ,7,1,0.,24.0,0.,24.0
1979-07-27 11:37:55.160 ,3,1,0.,24.0,0.,24.0
1979-07-27 11:38:19.160 ,0,1,0.,24.0,0.,24.0
1979-07-27 11:38:43.160 ,4,1,0.,24.0,0.,24.0
1979-07-27 11:39:07.160 ,7,1,0.,24.0,0.,24.0
1979-07-27 11:39:31.160 ,3,1,0.,24.0,0.,24.0
1979-07-27 11:39:55.160 ,0,1,0.,24.0,0.,24.0
1979-07-27 11:40:19.160 ,4,1,0.,24.0,0.,24.0
1979-07-27 11:40:43.160 ,7,1,0.,24.0,0.,24.0
1979-07-27 11:41:07.160 ,3,1,0.,24.0,0.,24.0
1979-07-27 11:41:31.160 ,0,1,0.,24.0,0.,24.0
1979-07-27 11:41:55.160 ,0,0,0.,24.0,0.,24.0
1979-07-27 11:42:19.160 ,0,0,0.,24.0,0.,24.0
1979-07-27 11:42:43.160 ,5,1,0.,24.0,0.,24.0
1979-07-27 11:43:07.160 ,5,0,0.,24.0,0.,24.0
1979-07-27 11:43:31.160 ,4,1,0.,24.0,0.,24.0
1979-07-27 11:43:55.160 ,4,0,0.,24.0,0.,24.0
1979-07-27 11:44:19.160 ,3,1,0.,24.0,0.,24.0
1979-07-27 11:44:43.160 ,3,0,0.,24.0,0.,24.0
1979-07-27 11:45:07.160 ,2,1,0.,24.0,0.,24.0
1979-07-27 11:45:31.160 ,2,0,0.,24.0,0.,24.0
1979-07-27 11:45:55.160 ,1,1,0.,24.0,0.,24.0
1979-07-27 11:46:19.160 ,1,0,0.,24.0,0.,24.0
1979-07-27 11:46:43.160 ,0,1,0.,24.0,0.,24.0
1979-07-27 11:47:07.160 ,0,0,0.,24.0,0.,24.0
1979-07-27 11:47:31.160 ,0,1,0.,24.0,0.,24.0
1979-07-27 11:47:55.160 ,0,0,0.,24.0,0.,24.0
1979-07-27 11:48:19.160 ,1,1,0.,24.0,0.,24.0
1979-07-27 11:48:43.160 ,1,0,0.,24.0,0.,24.0
1979-07-27 11:49:07.160 ,2,1,0.,24.0,0.,24.0
1979-07-27 11:49:31.160 ,2,0,0.,24.0,0.,24.0
1979-07-27 11:49:55.160 ,3,1,0.,24.0,0.,24.0
1979-07-27 11:50:19.160 ,3,0,0.,24.0,0.,24.0
1979-07-27 11:50:43.160 ,4,1,0.,24.0,0.,24.0
1979-07-27 11:51:07.160 ,4,0,0.,24.0,0.,24.0
1979-07-27 11:51:31.160 ,5,1,0.,24.0,0.,24.0
1979-07-27 11:51:55.160 ,5,0,0.,24.0,0.,24.0
1979-07-27 11:52:19.160 ,6,1,0.,24.0,0.,24.0
1979-07-27 11:52:43.160 ,6,0,0.,24.0,0.,24.0
1979-07-27 11:53:07.160 ,7,1,0.,24.0,0.,24.0
1979-07-27 11:53:31.160 ,7,0,0.,24.0,0.,24.0
1979-07-27 11:53:55.160 ,7,1,0.,24.0,0.,24.0
1979-07-27 11:54:19.160 ,7,0,0.,24.0,0.,24.0
1979-07-27 11:54:43.160 ,6,1,0.,24.0,0.,24.0
1979-07-27 11:55:07.160 ,6,0,0.,24.0,0.,24.0
1979-07-27 11:55:31.160 ,5,1,0.,24.0,0.,24.0
1979-07-27 11:55:55.160 ,5,0,0.,24.0,0.,24.0
1979-07-27 11:56:19.160 ,4,1,0.,24.0,0.,24.0
1979-07-27 11:56:43.160 ,4,0,0.,24.0,0.,24.0
1979-07-27 11:57:07.160 ,3,1,0.,24.0,0.,24.0
1979-07-27 11:57:31.160 ,3,0,0.,24.0,0.,24.0
1979-07-27 11:57:55.160 ,2,1,0.,24.0,0.,24.0
1979-07-27 11:58:19.160 ,2,0,0.,24.0,0.,24.0
1979-07-27 11:58:43.160 ,1,1,0.,24.0,0.,24.0
1979-07-27 11:59:07.160 ,1,0,1.,24.0,0.,24.0
1979-07-27 11:59:31.160 ,0,1,0.,24.0,0.,24.0
1979-07-27 11:59:55.160 ,0,0,0.,24.0,0.,24.0
1979-07-27 12:00:19.160 ,0,1,0.,24.0,0.,24.0
